This demonstration page uses our WeatherBlox Daily Observations layout. Learn more.

Left ArrowRight Arrow

Hourly Observations for July 16, 2016

Temp ( °F °C ) Dew Point ( °F °C ) Humidity (%) Winds ( mph kmh ) Pressure ( in mb ) Visibility ( mi km ) Precip ( " mm )
12:53 am 00:53 Clear 73 22.8 68 20 84 84 Calm 30.03 1017 10 16 0.00 0.00
1:53 am 01:53 Clear 74 23.3 68 20 82 82 Calm 30.02 1017 10 16 0.00 0.00
2:53 am 02:53 Clear 73 22.8 68 20 84 84 Calm 30.01 1016 10 16 0.00 0.00
3:53 am 03:53 Clear 75 23.9 68 20 79 79 Calm 30.02 1017 10 16 0.00 0.00
4:53 am 04:53 Clear 74 23.3 68 20 82 82 SSW 3 6 30.01 1016 10 16 0.00 0.00
5:53 am 05:53 Clear 74 23.3 68 20 82 82 Calm 30.02 1017 10 16 0.00 0.00
6:53 am 06:53 Sunny 71 21.7 67 19.4 87 87 Calm 30.04 1017 10 16 0.00 0.00
7:53 am 07:53 Sunny 74 23.3 69 20.6 85 85 Calm 30.05 1018 10 16 0.00 0.00
8:53 am 08:53 Sunny 80 26.7 70 21.1 71 71 Calm 30.07 1018 10 16 0.00 0.00
9:53 am 09:53 Sunny 84 28.9 70 21.1 63 63 NNE 3 6 30.09 1019 10 16 0.00 0.00
10:53 am 10:53 Sunny 85 29.4 69 20.6 59 59 W 3 6 30.09 1019 10 16 0.00 0.00
11:53 am 11:53 Sunny 87 30.6 69 20.6 55 55 WSW 6 9 30.09 1019 10 16 0.00 0.00
12:53 pm 12:53 Mostly Sunny 87 30.6 69 20.6 55 55 VRB 3 6 30.07 1018 10 16 0.00 0.00
1:53 pm 13:53 Mostly Sunny 88 31.1 69 20.6 54 54 S 10 17 30.06 1018 10 16 0.00 0.00
2:53 pm 14:53 Sunny with Nearby Thunderstorms 90 32.2 70 21.1 52 52 SSW 8 13 30.04 1017 10 16 0.00 0.00
3:29 pm 15:29 Mostly Cloudy 88 31.1 69 20.6 54 54 SSW 9 15 30.03 1017 10 16 0.00 0.00
3:46 pm 15:46 Partly Cloudy with Nearby Thunderstorms 88 31 70 21 55 55 S 9 15 30.03 1017 10 16 0.00 0.00
3:53 pm 15:53 Partly Cloudy with Nearby Thunderstorms 88 31.1 70 21.1 55 55 SSW 12 19 30.03 1017 10 16 0.00 0.00
4:07 pm 16:07 Sunny 88 31.1 70 21.1 55 55 S 12 19 30.03 1017 10 16 0.00 0.00
4:53 pm 16:53 Sunny 88 31.1 69 20.6 54 54 SE 9 15 30.03 1017 10 16 0.00 0.00
5:53 pm 17:53 Mostly Cloudy with Thunderstorms 89 31.7 69 20.6 52 52 S 12 19 30.02 1017 10 16 0.00 0.00
6:02 pm 18:02 Partly Cloudy with Nearby Thunderstorms 90 32 70 21 52 52 SSW 13 20 30.00 1016 10 16 0.00 0.00
6:20 pm 18:20 Partly Cloudy with Thunderstorms 88 31 70 21 55 55 SSW 9 15 30.03 1017 10 16 0.00 0.00
6:53 pm 18:53 Cloudy with Thunderstorms 80 26.7 66 18.9 62 62 ENE 14 22 30.06 1018 10 16 0.00 0.00
7:53 pm 19:53 Partly Cloudy with Thunderstorms 75 23.9 66 18.9 74 74 NE 13 20 30.09 1019 10 16 0.00 0.00
8:21 pm 20:21 Sunny 76 24.4 63 17.2 64 64 N 7 11 30.09 1019 10 16 0.00 0.00
8:53 pm 20:53 Clear 77 25 62 16.7 60 60 N 3 6 30.08 1019 10 16 0.00 0.00
9:53 pm 21:53 Mostly Cloudy 75 23.9 64 17.8 69 69 NNE 6 9 30.10 1019 10 16 0.00 0.03
10:53 pm 22:53 Clear 75 23.9 64 17.8 69 69 Calm 30.11 1020 10 16 0.00 0.00
11:53 pm 23:53 Clear 72 22.2 66 18.9 82 82 Calm 30.13 1020 10 16 0.00 0.00

Powered by AerisWeather